Weather Roundup
Issued by NWS Springfield, MO

Home | Current Version | Previous Version | Text Only | Print | Product List | Glossary On
Versions: 1 2 3 4 5 6 7 8 9 10 11 12 13 14 15 16 17 18 19 20 21 22 23 24 25 26 27 28 29 30 31 32 33 34 35 36 37 38 39 40 41 42 43 44 45 46 47 48 49 50
000
NZUS99 KSGF 202159
HRRSGF

HOURLY WEATHER
NATIONAL WEATHER SERVICE SPRINGFIELD MO
500 PM CDT SAT SEP 20 2014

......SGF CWA......

CITY           SKY/WX    TMP DP  RH WIND       PRES   REMARKS
SPRINGFIELD    MOSUNNY   82  68  62 SW8       29.98S
JOPLIN         MOSUNNY   83  70  64 SW14      29.98S
WEST PLAINS    MOSUNNY   83  67  58 SW7       30.00F
ROLLA          MOSUNNY   82  65  56 SW12      29.95F
OSAGE BEACH    MOSUNNY   82  66  57 W6        29.97R
BRANSON        MOSUNNY   86  66  51 W10       29.99F

......SURROUNDING SGF CWA......

CITY           SKY/WX    TMP DP  RH WIND       PRES   REMARKS
CHANUTE        SUNNY     84  70  62 SW15G26   29.95F
PARSONS        SUNNY     85  72  65 SW7       29.98S HX  91
EMPORIA        MOSUNNY   88  66  48 SW10G20   29.94R HX  90
GROVE OK       SUNNY     86  70  58 SW8       29.98F HX  90
SILOAM SPRINGS SUNNY     84  64  51 SW9       30.02F
HARRISON AR    MOSUNNY   84  68  58 SW6       30.00F
NEAR YELLVILLE MOSUNNY   86  64  48 SW7       29.98F

......KANSAS AND MISSOURI......

CITY           SKY/WX    TMP DP  RH WIND       PRES   REMARKS
KANSAS CTY INT CLOUDY    78  72  81 S8        29.93F
DOWNTOWN KC    CLOUDY    83  70  64 SW6       29.92S
COLUMBIA       PTSUNNY   82  69  64 W12       29.95R
SEDALIA        CLOUDY    82  70  66 SW7       29.96R
ST JOSEPH      MOSUNNY   84  69  60 W10G17    29.91S
ST LOUIS       PTSUNNY   87  68  52 W9        29.92F HX  90
SPIRIT OF STL  PTSUNNY   85  67  54 SW7       29.90F
KIRKSVILLE     SUNNY     80  71  74 W6        29.91F
WICHITA        MOSUNNY   93  58  30 W10       29.94F HX  92
TOPEKA         LGT RAIN  75  73  93 CALM      29.95R
OLATHE         CLOUDY    79  70  74 SW6       29.95R

......TENNESSEE......

CITY           SKY/WX    TMP DP  RH WIND       PRES   REMARKS
MEMPHIS        PTSUNNY   88  62  41 CALM      29.98F
NASHVILLE      PTSUNNY   84  64  50 W3        30.01F

......ARKANSAS.......

CITY           SKY/WX    TMP DP  RH WIND       PRES   REMARKS
FAYETTEVILLE   SUNNY     82  65  56 SW8       30.02F
FT SMITH       PTSUNNY   87  64  46 CALM      29.98S
LITTLE ROCK    PTSUNNY   88  63  43 SE3       29.97F

......OKLAHOMA.......

CITY           SKY/WX    TMP DP  RH WIND       PRES   REMARKS
TULSA          MOSUNNY   88  67  49 S14       29.96F HX  91
PONCA CITY     SUNNY     88  65  46 S7        29.94F HX  90
MCALESTER      SUNNY     88  66  48 VRB5      29.98F HX  90
OKLAHOMA CITY  MOSUNNY   88  67  49 SE9       29.97F HX  91

......IOWA............

CITY           SKY/WX    TMP DP  RH WIND       PRES   REMARKS
DES MOINES     MOSUNNY   85  62  46 W14       29.85S
QUAD CITIES    PTSUNNY   78  67  68 W9        29.82S

......ILLINOIS........

CITY           SKY/WX    TMP DP  RH WIND       PRES   REMARKS
QUINCY         PTSUNNY   82  70  66 W6        29.88F
CHICAGO        PTSUNNY   77  66  68 SW7       29.78F



USA.gov is the U.S. government's official web portal to all federal, state and local government web resources and services.